EDW22 MDPP-MKJS

Flight info

Callsign EDW22
Flight time 1h 16m
Altitude 34000
Route RETAK3C RETAK UM348 ALBBE DCT BODLO DCT BYGON UL599 MLY A301 SAVEM UW6 SIA LENAR7
Aircraft A343/H-SDE2E3FGHIJ4J5M1RWXY/LB1D1

Departure

Time 2026-04-23 12:31
Airport Gregorio Luperon International Airport (MDPP)

Arrival

Time 2026-04-23 13:48
Airport Sangster International Airport (MKJS)
Time Latitude Longitude Altitude Speed Heading
2026-04-23 12:03 19.75630 -70.56415 39 ft 0 kts 208°
2026-04-23 12:18 19.75642 -70.56408 39 ft 4 kts 213°
2026-04-23 12:18 19.75663 -70.56390 38 ft 4 kts 225°
2026-04-23 12:19 19.75681 -70.56369 36 ft 4 kts 236°
2026-04-23 12:19 19.75695 -70.56344 38 ft 4 kts 246°
2026-04-23 12:19 19.75704 -70.56318 36 ft 4 kts 254°
2026-04-23 12:19 19.75705 -70.56316 37 ft 0 kts 256°
2026-04-23 12:22 19.75705 -70.56334 35 ft 14 kts 271°
2026-04-23 12:22 19.75705 -70.56350 35 ft 0 kts 271°
2026-04-23 12:23 19.75705 -70.56356 39 ft 4 kts 272°
2026-04-23 12:23 19.75700 -70.56413 39 ft 9 kts 250°
2026-04-23 12:24 19.75685 -70.56481 39 ft 14 kts 258°
2026-04-23 12:24 19.75655 -70.56592 39 ft 16 kts 252°
2026-04-23 12:24 19.75620 -70.56710 39 ft 17 kts 252°
2026-04-23 12:24 19.75583 -70.56834 39 ft 18 kts 252°
2026-04-23 12:25 19.75548 -70.56954 38 ft 11 kts 252°
2026-04-23 12:25 19.75537 -70.57032 38 ft 8 kts 284°
2026-04-23 12:25 19.75572 -70.57088 38 ft 10 kts 310°
2026-04-23 12:25 19.75592 -70.57110 38 ft 0 kts 314°
2026-04-23 12:26 19.75593 -70.57112 38 ft 2 kts 314°
2026-04-23 12:26 19.75623 -70.57144 38 ft 10 kts 314°
2026-04-23 12:27 19.75685 -70.57222 37 ft 17 kts 302°
2026-04-23 12:27 19.75687 -70.57343 37 ft 16 kts 254°
2026-04-23 12:27 19.75652 -70.57462 36 ft 18 kts 252°
2026-04-23 12:27 19.75614 -70.57590 36 ft 19 kts 253°
2026-04-23 12:28 19.75576 -70.57723 38 ft 19 kts 253°
2026-04-23 12:28 19.75538 -70.57855 40 ft 19 kts 253°
2026-04-23 12:28 19.75500 -70.57991 40 ft 20 kts 253°
2026-04-23 12:28 19.75460 -70.58132 41 ft 20 kts 253°
2026-04-23 12:29 19.75415 -70.58272 40 ft 18 kts 240°
2026-04-23 12:29 19.75355 -70.58358 39 ft 10 kts 256°
2026-04-23 12:29 19.75370 -70.58377 40 ft 3 kts 337°
2026-04-23 12:29 19.75385 -70.58369 40 ft 2 kts 39°
2026-04-23 12:30 19.75401 -70.58339 40 ft 0 kts 71°
2026-04-23 12:30 19.75401 -70.58338 40 ft 1 kts 71°
2026-04-23 12:30 19.75406 -70.58322 40 ft 7 kts 73°
2026-04-23 12:31 19.75473 -70.58081 41 ft 67 kts 73°
2026-04-23 12:31 19.75672 -70.57388 36 ft 127 kts 73°
2026-04-23 12:31 19.75979 -70.56325 53 ft 172 kts 73°
2026-04-23 12:31 19.76321 -70.55145 795 ft 161 kts 74°
2026-04-23 12:32 19.76657 -70.53990 1482 ft 169 kts 74°
2026-04-23 12:32 19.77118 -70.52732 1864 ft 203 kts 60°
2026-04-23 12:32 19.78259 -70.51691 2403 ft 233 kts 26°
2026-04-23 12:32 19.79853 -70.51126 3201 ft 249 kts 19°
2026-04-23 12:33 19.81541 -70.50629 4156 ft 255 kts 18°
2026-04-23 12:33 19.83339 -70.50093 5102 ft 264 kts 17°
2026-04-23 12:33 19.85093 -70.49558 6014 ft 271 kts 17°
2026-04-23 12:33 19.86899 -70.48997 6934 ft 277 kts 16°
2026-04-23 12:34 19.88757 -70.48416 7891 ft 280 kts 17°
2026-04-23 12:34 19.90638 -70.47824 8846 ft 284 kts 17°
2026-04-23 12:34 19.92579 -70.47371 9807 ft 288 kts
2026-04-23 12:34 19.94595 -70.47445 10526 ft 298 kts 348°
2026-04-23 12:35 19.96535 -70.48369 10882 ft 319 kts 321°
2026-04-23 12:35 19.97942 -70.50262 11219 ft 338 kts 294°
2026-04-23 12:35 19.98570 -70.52724 11607 ft 354 kts 279°
2026-04-23 12:35 19.98950 -70.55318 12152 ft 364 kts 278°
2026-04-23 12:36 19.99371 -70.58039 12787 ft 372 kts 279°
2026-04-23 12:36 19.99823 -70.60726 13506 ft 376 kts 280°
2026-04-23 12:36 20.00305 -70.63472 14207 ft 380 kts 280°
2026-04-23 12:36 20.00802 -70.66234 14934 ft 381 kts 281°
2026-04-23 12:37 20.01309 -70.69013 15658 ft 383 kts 281°
2026-04-23 12:37 20.01817 -70.71787 16472 ft 383 kts 281°
2026-04-23 12:37 20.02329 -70.74577 17104 ft 388 kts 281°
2026-04-23 12:37 20.02852 -70.77419 17737 ft 393 kts 281°
2026-04-23 12:38 20.03376 -70.80263 18529 ft 392 kts 281°
2026-04-23 12:38 20.03900 -70.83114 19083 ft 397 kts 281°
2026-04-23 12:38 20.04435 -70.86023 19663 ft 400 kts 281°
2026-04-23 12:38 20.04972 -70.88948 20244 ft 403 kts 281°
2026-04-23 12:39 20.05506 -70.91859 20836 ft 405 kts 281°
2026-04-23 12:39 20.06047 -70.94812 21428 ft 407 kts 281°
2026-04-23 12:39 20.06589 -70.97772 22021 ft 409 kts 281°
2026-04-23 12:39 20.07135 -71.00753 22623 ft 411 kts 281°
2026-04-23 12:40 20.07681 -71.03745 23250 ft 414 kts 281°
2026-04-23 12:40 20.08226 -71.06729 23759 ft 417 kts 281°
2026-04-23 12:40 20.08785 -71.09798 24211 ft 420 kts 281°
2026-04-23 12:40 20.09346 -71.12873 24664 ft 422 kts 281°
2026-04-23 12:41 20.09902 -71.15926 25120 ft 424 kts 280°
2026-04-23 12:41 20.10463 -71.19012 25678 ft 423 kts 280°
2026-04-23 12:41 20.11019 -71.22069 26340 ft 420 kts 280°
2026-04-23 12:41 20.11574 -71.25129 26769 ft 422 kts 279°
2026-04-23 12:42 20.12123 -71.28159 27133 ft 425 kts 279°
2026-04-23 12:42 20.12684 -71.31259 27532 ft 428 kts 279°
2026-04-23 12:42 20.13248 -71.34376 27942 ft 430 kts 279°
2026-04-23 12:42 20.13813 -71.37500 28342 ft 432 kts 279°
2026-04-23 12:43 20.14381 -71.40647 28719 ft 434 kts 279°
2026-04-23 12:43 20.14951 -71.43808 29103 ft 436 kts 279°
2026-04-23 12:43 20.15522 -71.46977 29469 ft 438 kts 278°
2026-04-23 12:43 20.16096 -71.50167 29828 ft 439 kts 278°
2026-04-23 12:44 20.16671 -71.53365 30171 ft 441 kts 278°
2026-04-23 12:44 20.17241 -71.56537 30449 ft 443 kts 278°
2026-04-23 12:44 20.17819 -71.59759 30829 ft 442 kts 278°
2026-04-23 12:44 20.18394 -71.62964 31313 ft 439 kts 278°
2026-04-23 12:45 20.18966 -71.66140 31768 ft 436 kts 278°
2026-04-23 12:45 20.19706 -71.69270 32229 ft 437 kts 284°
2026-04-23 12:45 20.20785 -71.72292 32655 ft 437 kts 288°
2026-04-23 12:45 20.21979 -71.75262 33074 ft 436 kts 289°
2026-04-23 12:46 20.23218 -71.78208 33489 ft 434 kts 289°
2026-04-23 12:46 20.24465 -71.81127 33872 ft 433 kts 289°
2026-04-23 12:46 20.25711 -71.84050 34044 ft 435 kts 289°
2026-04-23 12:46 20.26953 -71.86979 34056 ft 432 kts 289°
2026-04-23 12:47 20.29324 -71.92883 34056 ft 442 kts 287°
2026-04-23 12:47 20.31531 -71.99018 34053 ft 441 kts 282°
2026-04-23 12:48 20.32540 -72.05382 34057 ft 434 kts 269°
2026-04-23 12:48 20.31897 -72.11716 34055 ft 431 kts 256°
2026-04-23 12:49 20.30278 -72.17867 34052 ft 431 kts 253°
2026-04-23 12:49 20.28503 -72.23926 34053 ft 431 kts 253°
2026-04-23 12:50 20.26727 -72.30016 34054 ft 431 kts 253°
2026-04-23 12:50 20.24981 -72.36113 34053 ft 430 kts 253°
2026-04-23 12:51 20.23245 -72.42212 34033 ft 430 kts 253°
2026-04-23 12:51 20.21800 -72.47290 34056 ft 433 kts 253°
2026-04-23 12:52 20.19759 -72.54442 34057 ft 435 kts 253°
2026-04-23 12:52 20.17999 -72.60597 34063 ft 435 kts 253°
2026-04-23 12:53 20.16239 -72.66744 34057 ft 434 kts 253°
2026-04-23 12:53 20.14777 -72.71843 34051 ft 434 kts 253°
2026-04-23 12:54 20.13014 -72.77983 34059 ft 434 kts 253°
2026-04-23 12:54 20.10964 -72.85111 34046 ft 434 kts 253°
2026-04-23 12:55 20.09484 -72.90250 34056 ft 434 kts 253°
2026-04-23 12:55 20.07728 -72.96343 34048 ft 434 kts 252°
2026-04-23 12:56 20.05961 -73.02463 34064 ft 433 kts 252°
2026-04-23 12:56 20.04192 -73.08581 34046 ft 433 kts 252°
2026-04-23 12:57 20.02420 -73.14698 34050 ft 433 kts 252°
2026-04-23 12:57 20.00646 -73.20816 34064 ft 433 kts 252°
2026-04-23 12:58 19.98870 -73.26931 34045 ft 433 kts 252°
2026-04-23 12:58 19.97095 -73.33036 34064 ft 436 kts 252°
2026-04-23 12:59 19.95301 -73.39203 34047 ft 437 kts 252°
2026-04-23 12:59 19.93259 -73.45278 34042 ft 436 kts 249°
2026-04-23 13:00 19.91101 -73.51293 34048 ft 436 kts 249°
2026-04-23 13:00 19.88918 -73.57303 34049 ft 436 kts 249°
2026-04-23 13:01 19.86743 -73.63267 34049 ft 436 kts 249°
2026-04-23 13:01 19.84553 -73.69268 34048 ft 436 kts 249°
2026-04-23 13:02 19.82365 -73.75261 34043 ft 435 kts 249°
2026-04-23 13:02 19.80175 -73.81253 34044 ft 435 kts 249°
2026-04-23 13:03 19.77997 -73.87205 34044 ft 435 kts 249°
2026-04-23 13:03 19.75806 -73.93186 34042 ft 435 kts 249°
2026-04-23 13:04 19.73609 -73.99175 34015 ft 435 kts 249°
2026-04-23 13:04 19.71402 -74.05186 34040 ft 438 kts 249°
2026-04-23 13:05 19.69186 -74.11213 34042 ft 439 kts 249°
2026-04-23 13:05 19.66981 -74.17202 34042 ft 439 kts 249°
2026-04-23 13:06 19.63649 -74.26242 34044 ft 439 kts 249°
2026-04-23 13:07 19.61425 -74.32266 34040 ft 439 kts 249°
2026-04-23 13:07 19.59201 -74.38283 34039 ft 438 kts 249°
2026-04-23 13:08 19.56992 -74.44254 34041 ft 438 kts 249°
2026-04-23 13:08 19.54768 -74.50258 34038 ft 437 kts 249°
2026-04-23 13:09 19.52542 -74.56260 34041 ft 437 kts 249°
2026-04-23 13:09 19.50313 -74.62261 34041 ft 437 kts 249°
2026-04-23 13:10 19.48097 -74.68221 34039 ft 437 kts 249°
2026-04-23 13:10 19.45862 -74.74228 34036 ft 440 kts 249°
2026-04-23 13:11 19.43614 -74.80261 34034 ft 441 kts 249°
2026-04-23 13:11 19.41360 -74.86303 34035 ft 441 kts 249°
2026-04-23 13:12 19.39107 -74.92336 34034 ft 441 kts 248°
2026-04-23 13:12 19.36864 -74.98333 34031 ft 441 kts 248°
2026-04-23 13:13 19.34605 -75.04369 34029 ft 441 kts 248°
2026-04-23 13:13 19.32344 -75.10402 34033 ft 440 kts 249°
2026-04-23 13:14 19.30084 -75.16424 34031 ft 440 kts 248°
2026-04-23 13:14 19.27839 -75.22401 34032 ft 440 kts 248°
2026-04-23 13:15 19.25579 -75.28409 34031 ft 440 kts 248°
2026-04-23 13:15 19.23315 -75.34423 34031 ft 440 kts 248°
2026-04-23 13:16 19.21048 -75.40437 34035 ft 440 kts 248°
2026-04-23 13:16 19.18776 -75.46458 34030 ft 442 kts 248°
2026-04-23 13:17 19.16511 -75.52452 34032 ft 442 kts 248°
2026-04-23 13:17 19.14225 -75.58494 34032 ft 442 kts 248°
2026-04-23 13:18 19.11939 -75.64533 34032 ft 442 kts 248°
2026-04-23 13:18 19.09652 -75.70566 34029 ft 442 kts 248°
2026-04-23 13:19 19.07377 -75.76558 34028 ft 442 kts 248°
2026-04-23 13:19 19.05085 -75.82591 34028 ft 442 kts 248°
2026-04-23 13:20 19.02798 -75.88604 34029 ft 441 kts 248°
2026-04-23 13:20 19.00505 -75.94625 34029 ft 441 kts 248°
2026-04-23 13:21 18.98210 -76.00645 34030 ft 441 kts 248°
2026-04-23 13:21 18.95930 -76.06618 34029 ft 441 kts 248°
2026-04-23 13:22 18.93635 -76.12626 34024 ft 441 kts 248°
2026-04-23 13:22 18.91329 -76.18653 34023 ft 443 kts 248°
2026-04-23 13:23 18.89014 -76.24699 34029 ft 444 kts 248°
2026-04-23 13:23 18.86699 -76.30738 34012 ft 444 kts 248°
2026-04-23 13:24 18.84399 -76.36731 33740 ft 439 kts 248°
2026-04-23 13:24 18.83254 -76.39711 32986 ft 439 kts 248°
2026-04-23 13:24 18.82103 -76.42706 32356 ft 443 kts 248°
2026-04-23 13:24 18.80937 -76.45740 31748 ft 448 kts 248°
2026-04-23 13:25 18.79762 -76.48795 31149 ft 451 kts 248°
2026-04-23 13:25 18.78578 -76.51872 30567 ft 453 kts 249°
2026-04-23 13:25 18.77389 -76.54958 29977 ft 455 kts 249°
2026-04-23 13:25 18.76197 -76.58052 29337 ft 454 kts 249°
2026-04-23 13:26 18.75027 -76.61085 28807 ft 451 kts 249°
2026-04-23 13:26 18.73847 -76.64140 28305 ft 449 kts 249°
2026-04-23 13:26 18.72673 -76.67181 27793 ft 446 kts 249°
2026-04-23 13:26 18.71505 -76.70206 27299 ft 444 kts 249°
2026-04-23 13:27 18.70340 -76.73219 26809 ft 442 kts 249°
2026-04-23 13:27 18.69184 -76.76210 26331 ft 441 kts 249°
2026-04-23 13:27 18.68027 -76.79200 25856 ft 439 kts 249°
2026-04-23 13:27 18.66875 -76.82174 25398 ft 437 kts 249°
2026-04-23 13:28 18.65726 -76.85139 24944 ft 436 kts 249°
2026-04-23 13:28 18.64581 -76.88093 24466 ft 435 kts 249°
2026-04-23 13:28 18.63453 -76.91004 24026 ft 434 kts 249°
2026-04-23 13:28 18.62313 -76.93941 23603 ft 433 kts 249°
2026-04-23 13:29 18.61174 -76.96876 23083 ft 432 kts 249°
2026-04-23 13:29 18.60036 -76.99805 22567 ft 430 kts 249°
2026-04-23 13:29 18.58906 -77.02715 22060 ft 428 kts 249°
2026-04-23 13:29 18.57782 -77.05605 21562 ft 425 kts 249°
2026-04-23 13:30 18.56665 -77.08477 21081 ft 423 kts 248°
2026-04-23 13:30 18.55549 -77.11346 20599 ft 421 kts 248°
2026-04-23 13:30 18.54441 -77.14191 20129 ft 419 kts 248°
2026-04-23 13:30 18.53351 -77.16988 19668 ft 417 kts 248°
2026-04-23 13:31 18.52253 -77.19806 19206 ft 415 kts 248°
2026-04-23 13:31 18.51156 -77.22617 18748 ft 413 kts 248°
2026-04-23 13:31 18.50065 -77.25415 18322 ft 412 kts 248°
2026-04-23 13:31 18.48979 -77.28197 17797 ft 409 kts 248°
2026-04-23 13:32 18.47899 -77.30961 17293 ft 407 kts 248°
2026-04-23 13:32 18.46904 -77.33741 16790 ft 404 kts 254°
2026-04-23 13:32 18.46441 -77.36635 16300 ft 400 kts 267°
2026-04-23 13:32 18.46393 -77.39551 15819 ft 397 kts 271°
2026-04-23 13:33 18.46508 -77.42413 15351 ft 396 kts 274°
2026-04-23 13:33 18.46712 -77.45303 14885 ft 395 kts 275°
2026-04-23 13:33 18.46948 -77.48173 14423 ft 391 kts 276°
2026-04-23 13:33 18.47187 -77.51015 13966 ft 388 kts 276°
2026-04-23 13:34 18.47412 -77.53817 13483 ft 381 kts 275°
2026-04-23 13:34 18.47620 -77.56539 12973 ft 362 kts 275°
2026-04-23 13:34 18.47804 -77.59076 12478 ft 333 kts 275°
2026-04-23 13:34 18.47971 -77.61443 11992 ft 317 kts 275°
2026-04-23 13:35 18.48126 -77.63687 11512 ft 305 kts 275°
2026-04-23 13:35 18.48278 -77.65882 11029 ft 298 kts 275°
2026-04-23 13:35 18.48428 -77.68050 10565 ft 296 kts 275°
2026-04-23 13:35 18.48578 -77.70208 10097 ft 295 kts 275°
2026-04-23 13:36 18.48727 -77.72360 9626 ft 293 kts 275°
2026-04-23 13:36 18.48876 -77.74499 9243 ft 293 kts 275°
2026-04-23 13:36 18.49024 -77.76641 8874 ft 293 kts 274°
2026-04-23 13:36 18.49171 -77.78782 8540 ft 292 kts 274°
2026-04-23 13:37 18.49318 -77.80913 8291 ft 291 kts 274°
2026-04-23 13:37 18.49462 -77.83006 8040 ft 291 kts 274°
2026-04-23 13:37 18.49607 -77.85129 7793 ft 290 kts 274°
2026-04-23 13:37 18.49752 -77.87249 7556 ft 290 kts 274°
2026-04-23 13:38 18.49897 -77.89369 7312 ft 289 kts 274°
2026-04-23 13:38 18.50042 -77.91486 7081 ft 290 kts 274°
2026-04-23 13:38 18.50181 -77.93600 6845 ft 290 kts 273°
2026-04-23 13:38 18.50260 -77.95724 6605 ft 289 kts 271°
2026-04-23 13:39 18.50319 -77.97835 6382 ft 288 kts 271°
2026-04-23 13:39 18.50382 -77.99946 6130 ft 289 kts 271°
2026-04-23 13:39 18.50449 -78.02017 5887 ft 281 kts 272°
2026-04-23 13:39 18.50515 -78.04009 5627 ft 264 kts 271°
2026-04-23 13:40 18.50575 -78.05898 5373 ft 254 kts 270°
2026-04-23 13:40 18.50553 -78.07753 5134 ft 253 kts 268°
2026-04-23 13:40 18.50498 -78.09600 4893 ft 251 kts 266°
2026-04-23 13:40 18.50449 -78.11444 4654 ft 253 kts 267°
2026-04-23 13:41 18.50347 -78.13270 4280 ft 245 kts 258°
2026-04-23 13:41 18.49649 -78.14826 3940 ft 231 kts 224°
2026-04-23 13:41 18.48386 -78.15678 3720 ft 214 kts 191°
2026-04-23 13:41 18.46937 -78.15633 3532 ft 209 kts 156°
2026-04-23 13:42 18.45727 -78.14856 3349 ft 202 kts 136°
2026-04-23 13:42 18.44705 -78.13848 3137 ft 202 kts 133°
2026-04-23 13:42 18.43709 -78.12810 3023 ft 200 kts 132°
2026-04-23 13:42 18.42759 -78.11792 2978 ft 188 kts 129°
2026-04-23 13:43 18.42333 -78.10586 3010 ft 176 kts 91°
2026-04-23 13:43 18.42557 -78.09333 2994 ft 176 kts 70°
2026-04-23 13:43 18.43071 -78.08173 2992 ft 178 kts 66°
2026-04-23 13:43 18.43590 -78.06988 2879 ft 178 kts 67°
2026-04-23 13:44 18.44098 -78.05795 2710 ft 178 kts 68°
2026-04-23 13:44 18.44603 -78.04616 2453 ft 174 kts 68°
2026-04-23 13:44 18.45096 -78.03485 2257 ft 166 kts 68°
2026-04-23 13:44 18.45564 -78.02403 2022 ft 160 kts 68°
2026-04-23 13:45 18.46014 -78.01365 1819 ft 152 kts 68°
2026-04-23 13:45 18.46437 -78.00390 1642 ft 139 kts 66°
2026-04-23 13:45 18.46818 -77.99513 1434 ft 127 kts 68°
2026-04-23 13:45 18.47178 -77.98680 1305 ft 127 kts 67°
2026-04-23 13:46 18.47545 -77.97835 1128 ft 126 kts 66°
2026-04-23 13:46 18.47910 -77.96996 975 ft 126 kts 67°
2026-04-23 13:46 18.48275 -77.96152 813 ft 126 kts 66°
2026-04-23 13:46 18.48640 -77.95314 662 ft 126 kts 69°
2026-04-23 13:47 18.49002 -77.94469 487 ft 127 kts 68°
2026-04-23 13:47 18.49368 -77.93633 320 ft 123 kts 68°
2026-04-23 13:47 18.49726 -77.92811 146 ft 122 kts 67°
2026-04-23 13:47 18.50071 -77.92011 25 ft 116 kts 66°
2026-04-23 13:48 18.50325 -77.91430 16 ft 67 kts 65°
2026-04-23 13:48 18.50483 -77.91065 16 ft 34 kts 65°
2026-04-23 13:48 18.50526 -77.90909 18 ft 21 kts 82°
2026-04-23 13:48 18.50531 -77.90779 16 ft 11 kts 89°
2026-04-23 13:49 18.50520 -77.90692 15 ft 13 kts 118°
2026-04-23 13:49 18.50472 -77.90686 15 ft 6 kts 212°
2026-04-23 13:49 18.50442 -77.90731 15 ft 9 kts 244°
2026-04-23 13:49 18.50406 -77.90816 15 ft 17 kts 246°
2026-04-23 13:50 18.50349 -77.90951 15 ft 22 kts 245°
2026-04-23 13:50 18.50283 -77.91102 15 ft 24 kts 245°
2026-04-23 13:50 18.50228 -77.91229 15 ft 12 kts 245°
2026-04-23 13:50 18.50209 -77.91273 14 ft 6 kts 245°
2026-04-23 13:51 18.50184 -77.91315 14 ft 5 kts 216°
2026-04-23 13:51 18.50151 -77.91314 14 ft 6 kts 171°
2026-04-23 13:51 18.50110 -77.91339 14 ft 9 kts 225°
2026-04-23 13:51 18.50053 -77.91364 14 ft 10 kts 186°
2026-04-23 13:52 18.50013 -77.91368 14 ft 2 kts 185°
2026-04-23 13:52 18.50006 -77.91369 14 ft 0 kts 185°